KC7GVU Weather Reports


Display with metric or nautical units.
time (UTC)temp
F
wind
direction
speed
MPH
gust
MPH
rain 1hr
in
rain 24hr
in
rain mn
in
humidity
%
barometer
mb
20260504184823 76 338 0.0 0.0 0.00 0.00 0.00 45 1009.0
20260504184323 75 45 0.0 0.0 0.00 0.00 0.00 45 1010.0
20260504183824 75 45 0.0 0.0 0.00 0.00 0.00 45 1010.0
20260504183323 75 45 0.0 0.0 0.00 0.00 0.00 46 1010.0
20260504182822 75 22 0.0 0.0 0.00 0.00 0.00 46 1010.0
20260504182322 74 0 0.0 0.0 0.00 0.00 0.00 46 1010.0
20260504181822 74 22 0.0 0.0 0.00 0.00 0.00 46 1010.0
20260504181322 74 45 0.0 0.0 0.00 0.00 0.00 46 1010.0
20260504180823 74 338 0.0 0.0 0.00 0.00 0.00 46 1010.0
20260504180324 74 22 0.0 0.0 0.00 0.00 0.00 45 1010.0
20260504175823 73 0 0.0 0.0 0.00 0.00 0.00 46 1010.0
20260504175323 73 45 0.0 0.0 0.00 0.00 0.00 46 1010.0
20260504174823 73 45 0.0 0.0 0.00 0.00 0.00 46 1010.0
20260504174323 73 45 0.0 0.0 0.00 0.00 0.00 46 1010.0
20260504173823 74 22 0.0 0.0 0.00 0.00 0.00 45 1010.0
20260504173324 73 22 0.0 0.0 0.00 0.00 0.00 46 1010.0
20260504172822 73 45 0.0 0.0 0.00 0.00 0.00 45 1010.0
20260504172322 73 45 0.0 0.0 0.00 0.00 0.00 45 1010.0
20260504171823 73 45 0.0 0.0 0.00 0.00 0.00 45 1010.0
20260504170823 73 22 0.0 0.0 0.00 0.00 0.00 46 1010.0
20260504170323 73 45 0.0 0.0 0.00 0.00 0.00 46 1010.0
20260504160322 72 22 0.0 0.0 0.00 0.00 0.00 45 1010.0
20260504150823 67 225 0.0 0.0 0.00 0.00 0.00 49 1009.0
20260504150323 66 225 0.0 0.0 0.00 0.00 0.00 50 1009.0
20260504141324 60 225 0.0 0.0 0.00 0.00 0.00 54 1009.0
20260504140823 59 225 0.0 0.0 0.00 0.00 0.00 55 1009.0
20260504140322 58 225 0.0 0.0 0.00 0.00 0.00 56 1009.0
20260504130323 51 202 0.0 0.0 0.00 0.00 0.00 62 1009.0
20260504110323 52 202 0.0 0.0 0.00 0.00 0.00 58 1008.0
20260504100323 58 158 0.0 0.0 0.00 0.00 0.00 49 1008.0
20260504081823 61 202 0.0 0.0 0.00 0.00 0.00 48 1008.0
20260504081323 61 225 0.0 0.0 0.00 0.00 0.00 48 1008.0
20260504080823 61 202 0.0 0.0 0.00 0.00 0.00 48 1008.0
20260504080322 61 202 0.0 0.0 0.00 0.00 0.00 48 1008.0
20260504070323 61 225 0.0 0.0 0.00 0.00 0.00 50 1009.0
20260504045823 63 225 0.0 0.0 0.00 0.00 0.00 50 1009.0
20260504044823 63 202 0.0 0.0 0.00 0.00 0.00 49 1009.0
20260504044323 64 225 0.0 0.0 0.00 0.00 0.00 49 1009.0
20260504043824 64 225 0.0 0.0 0.00 0.00 0.00 49 1009.0
20260504043324 64 225 0.0 0.0 0.00 0.00 0.00 49 1009.0
20260504042824 64 202 0.0 0.0 0.00 0.00 0.00 49 1009.0
20260504042324 64 225 0.0 0.0 0.00 0.00 0.00 49 1009.0
20260504041824 64 180 0.0 0.0 0.00 0.00 0.00 48 1009.0
20260504041324 64 225 0.0 0.0 0.00 0.00 0.00 48 1009.0
20260504040824 64 225 0.0 0.0 0.00 0.00 0.00 48 1009.0
20260504040324 64 225 0.0 0.0 0.00 0.00 0.00 48 1009.0
20260504035822 65 225 0.0 0.0 0.00 0.00 0.00 48 1008.0
20260504035323 65 225 0.0 0.0 0.00 0.00 0.00 48 1009.0
20260504034824 65 202 0.0 0.0 0.00 0.00 0.00 48 1008.0
20260504034324 66 225 0.0 0.0 0.00 0.00 0.00 48 1008.0
20260504033824 66 225 0.0 0.0 0.00 0.00 0.00 48 1008.0
20260504033323 67 202 0.0 0.0 0.00 0.00 0.00 48 1008.0
20260504032324 68 225 0.0 0.0 0.00 0.00 0.00 46 1008.0
20260504031824 69 225 0.0 0.0 0.00 0.00 0.00 45 1008.0
20260504031323 70 225 0.0 0.0 0.00 0.00 0.00 44 1008.0
20260504030823 70 225 0.0 0.0 0.00 0.00 0.00 43 1008.0
20260504030323 71 225 0.0 0.0 0.00 0.00 0.00 43 1008.0
20260504025823 71 202 0.0 0.0 0.00 0.00 0.00 42 1008.0
20260504025322 72 202 0.0 0.0 0.00 0.00 0.00 41 1008.0
20260504024824 72 45 0.0 0.0 0.00 0.00 0.00 40 1008.0
20260504024324 73 45 0.0 0.0 0.00 0.00 0.00 39 1009.0
20260504023824 74 45 0.0 0.0 0.00 0.00 0.00 39 1009.0
20260504023323 74 45 0.0 0.0 0.00 0.00 0.00 38 1009.0
20260504022823 74 45 0.0 0.0 0.00 0.00 0.00 38 1009.0
20260504022323 75 45 0.0 0.0 0.00 0.00 0.00 38 1009.0
20260504021825 74 22 0.0 0.0 0.00 0.00 0.00 38 1009.0
20260504021323 74 45 0.0 0.0 0.00 0.00 0.00 37 1009.0
20260504020824 74 225 0.0 0.0 0.00 0.00 0.00 37 1009.0
20260504020324 74 225 0.0 0.0 0.00 0.00 0.00 38 1009.0
20260504015823 74 225 0.0 0.0 0.00 0.00 0.00 38 1009.0
20260504015324 75 225 0.0 0.0 0.00 0.00 0.00 38 1009.0
20260504014823 75 202 0.0 0.0 0.00 0.00 0.00 37 1009.0
20260504014323 75 225 0.0 0.0 0.00 0.00 0.00 37 1009.0
20260504013824 75 202 0.0 0.0 0.00 0.00 0.00 37 1009.0
20260504013324 76 202 0.0 0.0 0.00 0.00 0.00 37 1009.0
20260504012824 76 202 0.0 0.0 0.00 0.00 0.00 37 1009.0
20260504012324 76 202 0.0 0.0 0.00 0.00 0.00 37 1009.0
20260504011824 76 225 0.0 0.0 0.00 0.00 0.00 36 1009.0
20260504011324 76 180 0.0 0.0 0.00 0.00 0.00 36 1009.0
20260504010824 76 45 0.0 0.0 0.00 0.00 0.00 36 1009.0
20260504010323 77 338 0.0 0.0 0.00 0.00 0.00 36 1009.0
20260504005823 77 0 0.0 0.0 0.00 0.00 0.00 36 1010.0
20260504005323 77 225 0.0 0.0 0.00 0.00 0.00 36 1010.0
20260504004823 77 0 0.0 0.0 0.00 0.00 0.00 36 1010.0
20260504004323 77 338 0.0 0.0 0.00 0.00 0.00 35 1010.0
20260504003823 77 45 0.0 0.0 0.00 0.00 0.00 36 1010.0
20260504003324 77 45 0.0 0.0 0.00 0.00 0.00 36 1010.0
20260504002824 77 45 0.0 0.0 0.00 0.00 0.00 36 1010.0
20260504002324 77 0 0.0 0.0 0.00 0.00 0.00 36 1010.0
20260504001823 78 45 0.0 0.0 0.00 0.00 0.00 36 1010.0
20260504001324 78 0 0.0 0.0 0.00 0.00 0.00 36 1010.0
20260504000823 78 338 0.0 0.0 0.00 0.00 0.00 36 1010.0
20260504000323 78 45 0.0 0.0 0.00 0.00 0.00 37 1010.0
20260503235823 78 0 0.0 0.0 0.00 0.00 0.00 36 1010.0
20260503235323 78 45 0.0 0.0 0.00 0.00 0.00 36 1010.0
20260503234823 78 338 0.0 0.0 0.00 0.00 0.00 36 1010.0
20260503234323 78 0 0.0 0.0 0.00 0.00 0.00 37 1010.0
20260503233823 78 22 0.0 0.0 0.00 0.00 0.00 37 1010.0
20260503233323 79 0 0.0 0.0 0.00 0.00 0.00 37 1010.0
20260503232823 79 338 0.0 0.0 0.00 0.00 0.00 37 1010.0
20260503232323 78 45 0.0 0.0 0.00 0.00 0.00 38 1010.0
20260503231822 78 45 0.0 0.0 0.00 0.00 0.00 38 1010.0
20260503231324 78 45 0.0 0.0 0.00 0.00 0.00 38 1010.0
20260503230824 78 45 0.0 0.0 0.00 0.00 0.00 38 1010.0
20260503230323 78 0 0.0 0.0 0.00 0.00 0.00 39 1010.0
20260503225823 78 338 0.0 0.0 0.00 0.00 0.00 39 1011.0
20260503225323 78 45 0.0 0.0 0.00 0.00 0.00 39 1011.0
20260503224823 78 45 0.0 0.0 0.00 0.00 0.00 39 1011.0
20260503224323 78 22 0.0 0.0 0.00 0.00 0.00 39 1011.0
20260503223823 78 338 0.0 0.0 0.00 0.00 0.00 39 1011.0
20260503223323 78 45 0.0 0.0 0.00 0.00 0.00 40 1011.0
20260503222823 78 45 0.0 0.0 0.00 0.00 0.00 40 1011.0
20260503222324 77 338 0.0 0.0 0.00 0.00 0.00 40 1012.0
20260503221823 77 22 0.0 0.0 0.00 0.00 0.00 40 1012.0
20260503221323 77 45 0.0 0.0 0.00 0.00 0.00 40 1012.0
20260503220324 77 45 0.0 0.0 0.00 0.00 0.00 41 1012.0
20260503215823 77 338 0.0 0.0 0.00 0.00 0.00 42 1012.0
20260503215323 76 45 0.0 0.0 0.00 0.00 0.00 40 1012.0
20260503214823 76 22 0.0 0.0 0.00 0.00 0.00 41 1012.0
20260503214323 76 22 0.0 0.0 0.00 0.00 0.00 41 1012.0
20260503213823 76 45 0.0 0.0 0.00 0.00 0.00 41 1012.0
20260503213324 76 338 0.0 0.0 0.00 0.00 0.00 41 1012.0
20260503212824 76 22 0.0 0.0 0.00 0.00 0.00 41 1012.0
20260503212324 76 22 0.0 0.0 0.00 0.00 0.00 41 1012.0
20260503211824 77 22 0.0 0.0 0.00 0.00 0.00 42 1012.0
20260503211323 77 22 0.0 0.0 0.00 0.00 0.00 42 1012.0
20260503210824 77 22 0.0 0.0 0.00 0.00 0.00 41 1012.0
20260503210323 77 22 0.0 0.0 0.00 0.00 0.00 41 1012.0
20260503205823 78 22 0.0 0.0 0.00 0.00 0.00 41 1012.0
20260503205323 78 45 0.0 0.0 0.00 0.00 0.00 42 1012.0
20260503204823 77 22 0.0 0.0 0.00 0.00 0.00 42 1012.0
20260503203824 77 45 0.0 0.0 0.00 0.00 0.00 43 1012.0
20260503203323 77 22 0.0 0.0 0.00 0.00 0.00 43 1012.0
20260503202825 77 45 0.0 0.0 0.00 0.00 0.00 43 1012.0
20260503202324 78 22 0.0 0.0 0.00 0.00 0.00 43 1012.0
20260503201824 78 22 0.0 0.0 0.00 0.00 0.00 44 1012.0
20260503201324 77 22 0.0 0.0 0.00 0.00 0.00 43 1012.0
20260503200824 77 45 0.0 0.0 0.00 0.00 0.00 44 1012.0
20260503200324 77 45 0.0 0.0 0.00 0.00 0.00 44 1012.0
20260503195824 77 45 0.0 0.0 0.00 0.00 0.00 44 1012.0
20260503195323 77 22 0.0 0.0 0.00 0.00 0.00 44 1012.0
20260503194823 76 45 0.0 0.0 0.00 0.00 0.00 44 1012.0
20260503194323 76 45 0.0 0.0 0.00 0.00 0.00 44 1012.0
20260503193824 76 22 0.0 0.0 0.00 0.00 0.00 44 1012.0
20260503193324 76 22 0.0 0.0 0.00 0.00 0.00 44 1013.0
20260503192824 76 22 0.0 0.0 0.00 0.00 0.00 44 1012.0
20260503192324 76 45 0.0 0.0 0.00 0.00 0.00 44 1013.0
20260503191824 76 22 0.0 0.0 0.00 0.00 0.00 45 1013.0
20260503191324 75 22 0.0 0.0 0.00 0.00 0.00 44 1013.0
20260503190824 76 45 0.0 0.0 0.00 0.00 0.00 44 1013.0
20260503190324 76 0 0.0 0.0 0.00 0.00 0.00 45 1013.0
20260503185824 75 45 0.0 0.0 0.00 0.00 0.00 44 1013.0